| time (UTC) | temp F | wind direction | speed MPH | gust MPH | rain 1hr in | rain 24hr in | rain mn in | humidity % | barometer mb |
| 20260506164705 | 58 | 311 | 1.0 | 6.0 | 0.00 | 0.79 | 0.77 | 89 | 1006.4 |
| 20260506164206 | 58 | 270 | 2.0 | 9.0 | 0.00 | 0.79 | 0.77 | 89 | 1006.4 |
| 20260506163705 | 58 | 315 | 3.0 | 10.0 | 0.00 | 0.79 | 0.77 | 89 | 1006.3 |
| 20260506162705 | 58 | 333 | 2.0 | 9.0 | 0.00 | 0.79 | 0.77 | 90 | 1006.2 |
| 20260506162205 | 58 | 283 | 3.0 | 9.0 | 0.00 | 0.79 | 0.77 | 90 | 1006.4 |
| 20260506161705 | 58 | 5 | 2.0 | 10.0 | 0.00 | 0.79 | 0.77 | 90 | 1006.2 |
| 20260506161204 | 58 | 0 | 4.0 | 10.0 | 0.00 | 0.79 | 0.77 | 89 | 1006.4 |
| 20260506160705 | 58 | 340 | 6.0 | 10.0 | 0.00 | 0.79 | 0.77 | 89 | 1006.4 |
| 20260506160205 | 59 | 270 | 1.0 | 14.0 | 0.00 | 0.79 | 0.77 | 89 | 1006.4 |
| 20260506154705 | 59 | 279 | 6.0 | 16.0 | 0.00 | 0.79 | 0.77 | 87 | 1006.7 |
| 20260506153705 | 59 | 293 | 1.0 | 16.0 | 0.00 | 0.79 | 0.77 | 87 | 1006.4 |
| 20260506153205 | 59 | 226 | 5.0 | 14.0 | 0.00 | 0.79 | 0.77 | 87 | 1006.4 |
| 20260506152705 | 59 | 331 | 7.0 | 10.0 | 0.00 | 0.79 | 0.77 | 86 | 1006.7 |
| 20260506152205 | 60 | 287 | 3.0 | 14.0 | 0.00 | 0.79 | 0.77 | 86 | 1006.4 |
| 20260506151705 | 60 | 9 | 9.0 | 16.0 | 0.00 | 0.79 | 0.77 | 85 | 1006.7 |
| 20260506151205 | 60 | 19 | 3.0 | 16.0 | 0.00 | 0.79 | 0.77 | 85 | 1006.8 |
| 20260506150705 | 61 | 343 | 3.0 | 16.0 | 0.00 | 0.79 | 0.77 | 85 | 1006.4 |
| 20260506150205 | 60 | 4 | 6.0 | 10.0 | 0.00 | 0.79 | 0.77 | 85 | 1006.6 |
| 20260506145705 | 61 | 299 | 5.0 | 16.0 | 0.00 | 0.79 | 0.77 | 84 | 1006.8 |
| 20260506145204 | 61 | 298 | 5.0 | 14.0 | 0.00 | 0.79 | 0.77 | 84 | 1006.5 |
| 20260506144705 | 61 | 307 | 3.0 | 9.0 | 0.00 | 0.79 | 0.77 | 84 | 1006.4 |
| 20260506144205 | 61 | 354 | 4.0 | 14.0 | 0.00 | 0.79 | 0.77 | 84 | 1006.6 |
| 20260506143705 | 62 | 344 | 5.0 | 10.0 | 0.00 | 0.79 | 0.77 | 83 | 1006.4 |
| 20260506143205 | 62 | 315 | 6.0 | 10.0 | 0.00 | 0.79 | 0.77 | 82 | 1007.1 |
| 20260506142705 | 62 | 272 | 4.0 | 10.0 | 0.00 | 0.79 | 0.77 | 83 | 1006.7 |
| 20260506142205 | 61 | 315 | 6.0 | 14.0 | 0.00 | 0.79 | 0.77 | 84 | 1006.8 |
| 20260506141204 | 63 | 314 | 5.0 | 14.0 | 0.00 | 0.79 | 0.77 | 83 | 1006.8 |
| 20260506135705 | 61 | 305 | 2.0 | 9.0 | 0.00 | 0.79 | 0.77 | 83 | 1006.8 |
| 20260506135206 | 61 | 336 | 3.0 | 10.0 | 0.00 | 0.79 | 0.77 | 84 | 1006.4 |
| 20260506134705 | 62 | 336 | 3.0 | 10.0 | 0.00 | 0.79 | 0.77 | 83 | 1006.8 |
| 20260506134205 | 62 | 263 | 2.0 | 14.0 | 0.00 | 0.79 | 0.77 | 83 | 1006.6 |
| 20260506132704 | 61 | 315 | 5.0 | 10.0 | 0.00 | 0.79 | 0.77 | 87 | 1006.4 |
| 20260506132205 | 60 | 309 | 5.0 | 10.0 | 0.00 | 0.79 | 0.77 | 89 | 1006.4 |
| 20260506131705 | 60 | 323 | 3.0 | 9.0 | 0.00 | 0.79 | 0.77 | 89 | 1006.4 |
| 20260506131205 | 60 | 272 | 2.0 | 10.0 | 0.00 | 0.79 | 0.77 | 89 | 1006.4 |
| 20260506130705 | 60 | 300 | 4.0 | 10.0 | 0.00 | 0.79 | 0.77 | 88 | 1006.5 |
| 20260506125204 | 63 | 23 | 1.0 | 9.0 | 0.00 | 0.79 | 0.77 | 84 | 1006.5 |
| 20260506123705 | 60 | 347 | 5.0 | 10.0 | 0.00 | 0.79 | 0.77 | 89 | 1006.4 |
| 20260506122705 | 60 | 341 | 2.0 | 6.0 | 0.00 | 0.79 | 0.77 | 91 | 1006.4 |
| 20260506122204 | 60 | 310 | 5.0 | 9.0 | 0.00 | 0.79 | 0.77 | 90 | 1006.4 |
| 20260506121704 | 60 | 17 | 4.0 | 9.0 | 0.00 | 0.79 | 0.77 | 91 | 1006.1 |
| 20260506120704 | 60 | 5 | 3.0 | 9.0 | 0.00 | 0.79 | 0.77 | 90 | 1006.1 |
| 20260506120205 | 61 | 344 | 1.0 | 6.0 | 0.00 | 0.79 | 0.77 | 89 | 1006.1 |
| 20260506115704 | 61 | 335 | 1.0 | 6.0 | 0.00 | 0.79 | 0.77 | 91 | 1005.8 |
| 20260506114705 | 60 | 23 | 3.0 | 9.0 | 0.00 | 0.79 | 0.77 | 95 | 1005.8 |
| 20260506114204 | 59 | 23 | 3.0 | 6.0 | 0.00 | 0.79 | 0.77 | 96 | 1005.8 |
| 20260506113705 | 59 | 23 | 3.0 | 10.0 | 0.00 | 0.79 | 0.77 | 96 | 1005.8 |
| 20260506113205 | 59 | 23 | 3.0 | 6.0 | 0.00 | 0.79 | 0.77 | 96 | 1005.7 |
| 20260506112704 | 59 | 40 | 5.0 | 6.0 | 0.00 | 0.79 | 0.77 | 95 | 1005.8 |
| 20260506112205 | 59 | 23 | 0.0 | 3.0 | 0.00 | 0.79 | 0.77 | 94 | 1005.9 |
| 20260506111706 | 58 | 23 | 1.0 | 6.0 | 0.00 | 0.79 | 0.77 | 93 | 1005.8 |
| 20260506111205 | 59 | 23 | 0.0 | 6.0 | 0.00 | 0.79 | 0.77 | 94 | 1005.8 |
| 20260506110704 | 58 | 42 | 3.0 | 6.0 | 0.00 | 0.79 | 0.77 | 92 | 1005.8 |
| 20260506110205 | 59 | 23 | 1.0 | 6.0 | 0.00 | 0.79 | 0.77 | 90 | 1005.9 |
| 20260506105204 | 59 | 23 | 2.0 | 6.0 | 0.00 | 0.79 | 0.77 | 88 | 1006.1 |
| 20260506104205 | 59 | 23 | 1.0 | 6.0 | 0.00 | 0.79 | 0.77 | 89 | 1005.8 |
| 20260506103704 | 59 | 23 | 1.0 | 3.0 | 0.00 | 0.79 | 0.77 | 89 | 1005.7 |
| 20260506103205 | 59 | 23 | 0.0 | 6.0 | 0.00 | 0.79 | 0.77 | 91 | 1005.8 |
| 20260506102705 | 58 | 23 | 1.0 | 6.0 | 0.00 | 0.79 | 0.77 | 90 | 1005.8 |
| 20260506101704 | 60 | 344 | 0.0 | 3.0 | 0.00 | 0.79 | 0.77 | 88 | 1005.8 |
| 20260506101205 | 59 | 315 | 0.0 | 0.0 | 0.00 | 0.79 | 0.77 | 87 | 1005.8 |
| 20260506100704 | 59 | 315 | 0.0 | 6.0 | 0.00 | 0.79 | 0.77 | 90 | 1005.5 |
| 20260506100204 | 59 | 345 | 2.0 | 6.0 | 0.00 | 0.79 | 0.77 | 90 | 1005.4 |
| 20260506095708 | 58 | 257 | 1.0 | 6.0 | 0.00 | 0.79 | 0.77 | 91 | 1005.7 |
| 20260506095208 | 58 | 203 | 3.0 | 6.0 | 0.00 | 0.79 | 0.77 | 91 | 1005.8 |
| 20260506094207 | 58 | 23 | 0.0 | 3.0 | 0.00 | 0.79 | 0.77 | 94 | 1005.4 |
| 20260506093707 | 57 | 23 | 0.0 | 3.0 | 0.00 | 0.79 | 0.77 | 96 | 1005.4 |
| 20260506093207 | 56 | 23 | 0.0 | 3.0 | 0.00 | 0.79 | 0.77 | 96 | 1005.4 |
| 20260506092708 | 56 | 23 | 1.0 | 3.0 | 0.00 | 0.79 | 0.77 | 97 | 1005.7 |
| 20260506092208 | 56 | 23 | 1.0 | 3.0 | 0.00 | 0.79 | 0.77 | 98 | 1005.6 |
| 20260506091708 | 56 | 23 | 0.0 | 6.0 | 0.00 | 0.79 | 0.77 | 99 | 1005.4 |
| 20260506091208 | 56 | 23 | 2.0 | 6.0 | 0.00 | 0.79 | 0.77 | 99 | 1005.4 |
| 20260506090708 | 55 | 347 | 2.0 | 6.0 | 0.00 | 0.79 | 0.77 | 99 | 1005.4 |
| 20260506090207 | 55 | 23 | 0.0 | 3.0 | 0.00 | 0.79 | 0.77 | 99 | 1005.4 |
| 20260506085708 | 56 | 23 | 0.0 | 6.0 | 0.00 | 0.79 | 0.77 | 99 | 1005.1 |
| 20260506085207 | 55 | 23 | 1.0 | 6.0 | 0.00 | 0.79 | 0.77 | 99 | 1005.4 |
| 20260506084708 | 55 | 343 | 3.0 | 10.0 | 0.00 | 0.79 | 0.77 | 99 | 1005.4 |
| 20260506084208 | 55 | 348 | 1.0 | 9.0 | 0.00 | 0.79 | 0.77 | 99 | 1005.4 |
| 20260506083708 | 54 | 14 | 1.0 | 6.0 | 0.00 | 0.79 | 0.77 | 99 | 1005.3 |
| 20260506083207 | 54 | 338 | 0.0 | 6.0 | 0.00 | 0.79 | 0.77 | 99 | 1005.1 |
| 20260506082708 | 54 | 332 | 0.0 | 6.0 | 0.00 | 0.79 | 0.77 | 99 | 1005.3 |
| 20260506082208 | 54 | 11 | 0.0 | 3.0 | 0.00 | 0.79 | 0.77 | 99 | 1005.1 |
| 20260506081707 | 54 | 324 | 1.0 | 3.0 | 0.00 | 0.79 | 0.77 | 99 | 1005.2 |
| 20260506080208 | 54 | 23 | 2.0 | 9.0 | 0.00 | 0.79 | 0.77 | 99 | 1005.2 |
| 20260506073207 | 54 | 315 | 0.0 | 3.0 | 0.00 | 0.80 | 0.77 | 99 | 1004.7 |
| 20260506071707 | 54 | 329 | 2.0 | 9.0 | 0.01 | 0.80 | 0.77 | 99 | 1004.7 |
| 20260506070708 | 54 | 0 | 0.0 | 3.0 | 0.03 | 0.80 | 0.77 | 99 | 1005.0 |
| 20260506070207 | 54 | 0 | 1.0 | 6.0 | 0.05 | 0.80 | 0.77 | 99 | 1004.7 |
| 20260506062208 | 54 | 0 | 0.0 | 3.0 | 0.07 | 0.79 | 0.76 | 99 | 1004.7 |
| 20260506061708 | 53 | 0 | 0.0 | 3.0 | 0.07 | 0.79 | 0.76 | 99 | 1004.7 |
| 20260506061208 | 53 | 0 | 1.0 | 3.0 | 0.05 | 0.77 | 0.74 | 99 | 1004.4 |
| 20260506060708 | 53 | 0 | 1.0 | 6.0 | 0.07 | 0.77 | 0.74 | 99 | 1004.3 |
| 20260506051207 | 53 | 295 | 3.0 | 9.0 | 0.06 | 0.74 | 0.69 | 99 | 1003.7 |
| 20260506050707 | 53 | 351 | 3.0 | 9.0 | 0.04 | 0.72 | 0.67 | 99 | 1003.9 |
| 20260506050207 | 53 | 330 | 1.0 | 9.0 | 0.06 | 0.73 | 0.67 | 99 | 1003.7 |
| 20260506044707 | 53 | 23 | 2.0 | 9.0 | 0.05 | 0.71 | 0.65 | 99 | 1003.9 |
| 20260506044207 | 53 | 0 | 1.0 | 6.0 | 0.06 | 0.71 | 0.65 | 99 | 1004.1 |
| 20260506043708 | 53 | 338 | 1.0 | 3.0 | 0.06 | 0.70 | 0.64 | 99 | 1003.7 |
| 20260506043208 | 53 | 338 | 1.0 | 6.0 | 0.07 | 0.70 | 0.64 | 99 | 1003.7 |
| 20260506042707 | 53 | 10 | 1.0 | 6.0 | 0.07 | 0.70 | 0.64 | 99 | 1003.9 |
| 20260506041706 | 53 | 23 | 0.0 | 9.0 | 0.09 | 0.69 | 0.63 | 99 | 1004.1 |
| 20260506041207 | 53 | 278 | 1.0 | 9.0 | 0.09 | 0.69 | 0.63 | 99 | 1003.8 |
| 20260506040708 | 53 | 0 | 0.0 | 10.0 | 0.09 | 0.69 | 0.63 | 99 | 1003.9 |
| 20260506040208 | 53 | 254 | 2.0 | 9.0 | 0.07 | 0.67 | 0.61 | 99 | 1003.8 |
| 20260506035707 | 53 | 317 | 0.0 | 6.0 | 0.07 | 0.67 | 0.61 | 99 | 1004.1 |
| 20260506034707 | 53 | 2 | 1.0 | 9.0 | 0.07 | 0.66 | 0.60 | 99 | 1003.9 |
| 20260506034209 | 54 | 353 | 1.0 | 9.0 | 0.06 | 0.65 | 0.59 | 99 | 1004.1 |
| 20260506032208 | 54 | 332 | 1.0 | 6.0 | 0.02 | 0.61 | 0.54 | 99 | 1004.4 |
| 20260506031707 | 54 | 340 | 1.0 | 6.0 | 0.02 | 0.61 | 0.54 | 99 | 1004.4 |
| 20260506031207 | 54 | 324 | 2.0 | 9.0 | 0.03 | 0.61 | 0.54 | 99 | 1004.2 |
| 20260506030707 | 54 | 315 | 2.0 | 14.0 | 0.03 | 0.61 | 0.54 | 99 | 1004.1 |
| 20260506030207 | 54 | 318 | 2.0 | 10.0 | 0.03 | 0.61 | 0.54 | 99 | 1004.4 |
| 20260506025207 | 54 | 357 | 1.0 | 9.0 | 0.03 | 0.60 | 0.53 | 99 | 1004.4 |
| 20260506024207 | 54 | 23 | 1.0 | 9.0 | 0.03 | 0.60 | 0.53 | 99 | 1004.4 |
| 20260506023706 | 54 | 311 | 1.0 | 9.0 | 0.02 | 0.59 | 0.52 | 99 | 1004.4 |
| 20260506022707 | 55 | 315 | 3.0 | 10.0 | 0.02 | 0.59 | 0.52 | 99 | 1004.7 |
| 20260506022208 | 55 | 359 | 1.0 | 9.0 | 0.04 | 0.59 | 0.52 | 99 | 1004.7 |
| 20260506021707 | 55 | 356 | 3.0 | 9.0 | 0.05 | 0.59 | 0.52 | 99 | 1004.7 |
| 20260506021206 | 55 | 348 | 3.0 | 6.0 | 0.04 | 0.58 | 0.51 | 99 | 1004.7 |
| 20260506020707 | 55 | 314 | 2.0 | 6.0 | 0.05 | 0.58 | 0.51 | 99 | 1004.7 |
| 20260506020207 | 55 | 270 | 3.0 | 9.0 | 0.07 | 0.58 | 0.51 | 99 | 1004.7 |
| 20260506015707 | 55 | 293 | 2.0 | 10.0 | 0.07 | 0.58 | 0.51 | 99 | 1004.7 |
| 20260506015207 | 55 | 338 | 3.0 | 14.0 | 0.07 | 0.57 | 0.50 | 99 | 1004.7 |
| 20260506014706 | 55 | 67 | 2.0 | 10.0 | 0.09 | 0.57 | 0.50 | 99 | 1004.8 |
| 20260506014206 | 55 | 346 | 2.0 | 6.0 | 0.10 | 0.57 | 0.50 | 99 | 1005.1 |
| 20260506013707 | 55 | 268 | 1.0 | 6.0 | 0.12 | 0.57 | 0.50 | 99 | 1005.1 |
| 20260506013206 | 55 | 305 | 3.0 | 9.0 | 0.13 | 0.57 | 0.50 | 99 | 1005.1 |
| 20260506012707 | 55 | 225 | 1.0 | 6.0 | 0.13 | 0.57 | 0.50 | 99 | 1005.4 |
| 20260506012207 | 55 | 338 | 3.0 | 10.0 | 0.13 | 0.55 | 0.48 | 99 | 1005.1 |
| 20260506011706 | 55 | 315 | 1.0 | 6.0 | 0.13 | 0.54 | 0.47 | 99 | 1005.1 |
| 20260506011207 | 55 | 68 | 2.0 | 10.0 | 0.14 | 0.54 | 0.47 | 99 | 1005.1 |
| 20260506010706 | 55 | 273 | 0.0 | 6.0 | 0.14 | 0.53 | 0.46 | 99 | 1005.1 |
| 20260506010207 | 55 | 23 | 2.0 | 6.0 | 0.13 | 0.51 | 0.44 | 99 | 1005.2 |
| 20260506005207 | 55 | 18 | 3.0 | 6.0 | 0.15 | 0.50 | 0.43 | 99 | 1005.4 |
| 20260506004708 | 55 | 317 | 3.0 | 10.0 | 0.14 | 0.48 | 0.41 | 99 | 1005.4 |
| 20260506004207 | 56 | 293 | 3.0 | 10.0 | 0.14 | 0.47 | 0.40 | 99 | 1005.4 |
| 20260506003706 | 56 | 274 | 3.0 | 10.0 | 0.13 | 0.45 | 0.38 | 99 | 1005.2 |
| 20260506003207 | 56 | 315 | 2.0 | 6.0 | 0.13 | 0.44 | 0.37 | 99 | 1005.4 |
| 20260506002707 | 56 | 315 | 3.0 | 9.0 | 0.13 | 0.44 | 0.37 | 99 | 1005.8 |
| 20260506001707 | 56 | 339 | 3.0 | 10.0 | 0.13 | 0.41 | 0.34 | 99 | 1005.4 |
| 20260506001207 | 56 | 299 | 4.0 | 10.0 | 0.13 | 0.40 | 0.33 | 99 | 1005.8 |
| 20260506000707 | 56 | 252 | 1.0 | 6.0 | 0.13 | 0.39 | 0.32 | 99 | 1005.5 |
| 20260505235706 | 57 | 288 | 0.0 | 3.0 | 0.15 | 0.37 | 0.30 | 99 | 1005.8 |
| 20260505235206 | 57 | 293 | 0.0 | 6.0 | 0.15 | 0.35 | 0.28 | 99 | 1005.8 |
| 20260505234706 | 57 | 273 | 3.0 | 9.0 | 0.16 | 0.34 | 0.27 | 99 | 1005.8 |
| 20260505234207 | 57 | 11 | 1.0 | 3.0 | 0.17 | 0.33 | 0.26 | 99 | 1005.8 |
| 20260505233707 | 57 | 32 | 1.0 | 6.0 | 0.19 | 0.32 | 0.25 | 99 | 1006.1 |
| 20260505233207 | 57 | 0 | 0.0 | 3.0 | 0.20 | 0.31 | 0.24 | 99 | 1005.8 |
| 20260505232707 | 57 | 6 | 3.0 | 6.0 | 0.23 | 0.31 | 0.24 | 99 | 1006.1 |
| 20260505232206 | 57 | 345 | 1.0 | 6.0 | 0.21 | 0.29 | 0.22 | 99 | 1006.1 |
| 20260505231706 | 57 | 43 | 2.0 | 6.0 | 0.20 | 0.28 | 0.21 | 99 | 1006.1 |
| 20260505230706 | 57 | 345 | 1.0 | 9.0 | 0.19 | 0.26 | 0.19 | 99 | 1006.1 |
| 20260505230207 | 57 | 338 | 1.0 | 6.0 | 0.18 | 0.25 | 0.18 | 99 | 1006.3 |
| 20260505225706 | 57 | 315 | 1.0 | 10.0 | 0.09 | 0.22 | 0.15 | 99 | 1006.4 |
| 20260505224706 | 57 | 12 | 0.0 | 3.0 | 0.06 | 0.18 | 0.11 | 99 | 1006.6 |
| 20260505224207 | 57 | 17 | 1.0 | 14.0 | 0.04 | 0.16 | 0.09 | 99 | 1006.5 |
| 20260505223706 | 57 | 41 | 3.0 | 9.0 | 0.01 | 0.13 | 0.06 | 99 | 1006.4 |
| 20260505223206 | 57 | 354 | 3.0 | 9.0 | 0.06 | 0.11 | 0.04 | 99 | 1006.5 |
| 20260505222706 | 57 | 35 | 1.0 | 6.0 | 0.03 | 0.08 | 0.01 | 98 | 1006.6 |
| 20260505222208 | 57 | 342 | 1.0 | 6.0 | 0.03 | 0.08 | 0.01 | 98 | 1006.4 |
| 20260505221706 | 57 | 23 | 2.0 | 9.0 | 0.03 | 0.08 | 0.01 | 98 | 1006.7 |
| 20260505221206 | 57 | 346 | 1.0 | 6.0 | 0.02 | 0.07 | 0.00 | 98 | 1006.6 |
| 20260505220706 | 57 | 338 | 1.0 | 6.0 | 0.02 | 0.07 | 0.00 | 98 | 1006.8 |
| 20260505220206 | 57 | 338 | 1.0 | 6.0 | 0.02 | 0.07 | 0.00 | 98 | 1007.1 |
| 20260505215208 | 58 | 0 | 1.0 | 3.0 | 0.01 | 0.06 | 0.06 | 97 | 1006.9 |
| 20260505214706 | 58 | 338 | 0.0 | 3.0 | 0.00 | 0.05 | 0.05 | 97 | 1007.4 |
| 20260505214206 | 58 | 338 | 1.0 | 3.0 | 0.00 | 0.05 | 0.05 | 96 | 1007.1 |
| 20260505213706 | 58 | 338 | 0.0 | 3.0 | 0.00 | 0.05 | 0.05 | 96 | 1007.5 |
| 20260505213205 | 58 | 338 | 0.0 | 3.0 | 0.00 | 0.05 | 0.05 | 96 | 1007.1 |
| 20260505212707 | 58 | 338 | 1.0 | 6.0 | 0.00 | 0.05 | 0.05 | 96 | 1007.1 |
| 20260505212206 | 58 | 23 | 0.0 | 6.0 | 0.00 | 0.05 | 0.05 | 95 | 1007.4 |
| 20260505211706 | 58 | 338 | 0.0 | 6.0 | 0.00 | 0.05 | 0.05 | 95 | 1007.1 |
| 20260505211206 | 58 | 338 | 2.0 | 10.0 | 0.00 | 0.05 | 0.05 | 95 | 1007.1 |
| 20260505210206 | 59 | 338 | 2.0 | 9.0 | 0.00 | 0.05 | 0.05 | 93 | 1006.8 |
| 20260505205705 | 59 | 0 | 1.0 | 10.0 | 0.00 | 0.05 | 0.05 | 93 | 1007.1 |
| 20260505205206 | 59 | 338 | 2.0 | 14.0 | 0.00 | 0.05 | 0.05 | 92 | 1006.8 |
| 20260505204206 | 59 | 342 | 5.0 | 14.0 | 0.00 | 0.05 | 0.05 | 91 | 1006.9 |
| 20260505203206 | 60 | 357 | 1.0 | 9.0 | 0.00 | 0.05 | 0.05 | 91 | 1006.4 |
| 20260505202206 | 60 | 351 | 5.0 | 10.0 | 0.00 | 0.05 | 0.05 | 91 | 1007.0 |
| 20260505201706 | 60 | 0 | 3.0 | 10.0 | 0.00 | 0.05 | 0.05 | 91 | 1006.8 |
| 20260505201206 | 60 | 2 | 5.0 | 10.0 | 0.00 | 0.05 | 0.05 | 90 | 1006.8 |
| 20260505200706 | 60 | 318 | 6.0 | 16.0 | 0.00 | 0.05 | 0.05 | 90 | 1006.8 |
| 20260505200206 | 60 | 347 | 5.0 | 14.0 | 0.00 | 0.05 | 0.05 | 90 | 1007.3 |
| 20260505195206 | 60 | 23 | 5.0 | 16.0 | 0.00 | 0.05 | 0.05 | 89 | 1007.1 |
| 20260505194706 | 60 | 325 | 2.0 | 9.0 | 0.00 | 0.05 | 0.05 | 89 | 1007.1 |
| 20260505194205 | 60 | 353 | 2.0 | 6.0 | 0.00 | 0.05 | 0.05 | 89 | 1007.3 |
| 20260505193706 | 61 | 338 | 3.0 | 9.0 | 0.00 | 0.05 | 0.05 | 88 | 1007.2 |
| 20260505193206 | 61 | 338 | 2.0 | 9.0 | 0.00 | 0.05 | 0.05 | 88 | 1007.1 |
| 20260505192705 | 61 | 23 | 3.0 | 9.0 | 0.00 | 0.05 | 0.05 | 88 | 1007.1 |
| 20260505192206 | 61 | 7 | 5.0 | 9.0 | 0.00 | 0.05 | 0.05 | 87 | 1007.2 |
| 20260505191705 | 61 | 0 | 2.0 | 6.0 | 0.00 | 0.05 | 0.05 | 87 | 1007.1 |
| 20260505191206 | 61 | 338 | 3.0 | 9.0 | 0.00 | 0.05 | 0.05 | 87 | 1007.5 |
| 20260505190706 | 61 | 320 | 2.0 | 6.0 | 0.00 | 0.05 | 0.05 | 87 | 1007.2 |
| 20260505190206 | 61 | 0 | 3.0 | 6.0 | 0.00 | 0.05 | 0.05 | 86 | 1007.8 |
| 20260505185707 | 62 | 0 | 1.0 | 9.0 | 0.00 | 0.05 | 0.05 | 86 | 1007.5 |
| 20260505185206 | 62 | 315 | 2.0 | 14.0 | 0.00 | 0.05 | 0.05 | 86 | 1007.5 |
| 20260505184205 | 62 | 336 | 3.0 | 9.0 | 0.00 | 0.05 | 0.05 | 85 | 1007.5 |
| 20260505183706 | 62 | 13 | 3.0 | 9.0 | 0.00 | 0.05 | 0.05 | 85 | 1007.6 |
| 20260505183206 | 62 | 0 | 3.0 | 9.0 | 0.00 | 0.05 | 0.05 | 85 | 1007.8 |
| 20260505182706 | 62 | 0 | 0.0 | 9.0 | 0.00 | 0.05 | 0.05 | 85 | 1007.5 |
| 20260505182206 | 62 | 45 | 1.0 | 14.0 | 0.00 | 0.05 | 0.05 | 84 | 1007.5 |
| 20260505181708 | 63 | 315 | 5.0 | 14.0 | 0.00 | 0.05 | 0.05 | 84 | 1007.5 |
| 20260505181206 | 63 | 23 | 8.0 | 14.0 | 0.00 | 0.05 | 0.05 | 83 | 1007.6 |
| 20260505180706 | 63 | 340 | 3.0 | 9.0 | 0.00 | 0.05 | 0.05 | 83 | 1007.8 |
| 20260505180207 | 63 | 0 | 3.0 | 9.0 | 0.00 | 0.05 | 0.05 | 82 | 1007.5 |
| 20260505175706 | 64 | 14 | 6.0 | 14.0 | 0.00 | 0.05 | 0.05 | 82 | 1007.6 |
| 20260505175205 | 64 | 0 | 1.0 | 10.0 | 0.00 | 0.05 | 0.05 | 82 | 1007.5 |
| 20260505174706 | 64 | 18 | 1.0 | 9.0 | 0.00 | 0.05 | 0.05 | 82 | 1007.5 |
| 20260505174206 | 64 | 0 | 3.0 | 9.0 | 0.00 | 0.05 | 0.05 | 82 | 1007.9 |
| 20260505173706 | 64 | 0 | 3.0 | 6.0 | 0.00 | 0.05 | 0.05 | 82 | 1007.7 |
| 20260505173205 | 65 | 0 | 1.0 | 6.0 | 0.00 | 0.05 | 0.05 | 81 | 1007.8 |
| 20260505172708 | 65 | 0 | 1.0 | 6.0 | 0.00 | 0.05 | 0.05 | 80 | 1007.5 |
| 20260505172206 | 65 | 10 | 1.0 | 9.0 | 0.00 | 0.05 | 0.05 | 77 | 1007.8 |
| 20260505171705 | 66 | 0 | 1.0 | 3.0 | 0.00 | 0.05 | 0.05 | 75 | 1007.5 |
| 20260505171206 | 66 | 18 | 0.0 | 3.0 | 0.00 | 0.05 | 0.05 | 73 | 1007.8 |
| 20260505170705 | 66 | 23 | 0.0 | 6.0 | 0.00 | 0.05 | 0.05 | 73 | 1007.8 |
| 20260505170205 | 66 | 23 | 2.0 | 6.0 | 0.00 | 0.05 | 0.05 | 73 | 1007.8 |
| 20260505165705 | 66 | 0 | 1.0 | 10.0 | 0.00 | 0.05 | 0.05 | 72 | 1007.8 |